Weather History for Brno, Czech Republic

Change the Weather History Date:

Tuesday, January 15, 2013

  Actual Average Record
Temperature  
Mean Temperature 26 °F -  
Max Temperature 33 °F 35 °F - ()
Min Temperature 18 °F 24 °F - ()
Degree Days  
Heating Degree Days 40    
Moisture  
Dew Point 24 °F    
Average Humidity 90    
Maximum Humidity 93    
Minimum Humidity 74    
Precipitation  
Precipitation 0.00 in 0.03 in - ()
Sea Level Pressure  
Sea Level Pressure 29.81 in    
Wind  
Wind Speed 4 mph ()    
Max Wind Speed 16 mph    
Max Gust Speed -    
Visibility 2.8 miles    
Events Fog    
T = Trace of Precipitation, MM = Missing Value Source: Averaged Metar Reports

Daily Weather History Graph

Daily Weather History Graph

Search for Another Location

Airport:

Trip Planner

Search our weather history database for the weather conditions in past years. The results will help you decide how hot, cold, wet, or windy it might be!

Date:

Astronomy

Jan. 15, 2013 Rise Set
Actual Time 7:42 AM CET 4:23 PM CET
Civil Twilight 7:06 AM CET 4:59 PM CET
Nautical Twilight 6:26 AM CET 5:39 PM CET
Astronomical Twilight 5:48 AM CET 6:17 PM CET
Moon 9:13 AM CET (1/15) 9:23 PM CET (1/15)
Length of Visible Light 9h 53m
Length of Day
8h 40m
Waxing Crescent, 17% of the Moon is Illuminated
Jan 15
Waxing Crescent
Jan 19
First Quarter
Jan 27
Full
Feb 3
Last Quarter
Feb 10
New

Hourly Weather History & Observations

Time (CET) Temp. Windchill Dew Point Humidity Pressure Visibility Wind Dir Wind Speed Gust Speed Precip Events Conditions
12:00 AM 24.8 °F 20.5 °F 23.0 °F 93% 29.89 in 4.3 mi South 3.5 mph - N/A   Overcast
12:30 AM 24.8 °F - 23.0 °F 93% 29.89 in 4.3 mi SW 2.3 mph - N/A   Overcast
1:00 AM 25 °F - 22 °F 82% 29.96 in 4 mi South 2.2 mph - -   Mist
1:00 AM 24.8 °F - 23.0 °F 93% 29.89 in 3.7 mi WNW 2.3 mph - N/A   Overcast
1:08 AM 24.8 °F - 23.0 °F 93% 29.89 in 3.1 mi Variable 2.3 mph - N/A   Mostly Cloudy
1:30 AM 23.0 °F 18.4 °F 21.2 °F 93% 29.89 in 2.5 mi South 3.5 mph - N/A   Mostly Cloudy
2:00 AM 23.0 °F - 21.2 °F 93% 29.89 in 1.9 mi Variable 1.2 mph - N/A   Overcast
2:30 AM 21.2 °F 16.4 °F 19.4 °F 93% 29.92 in 1.6 mi SW 3.5 mph - N/A   Overcast
3:00 AM 21.2 °F - 19.4 °F 93% 29.89 in 1.6 mi Variable 1.2 mph - N/A   Scattered Clouds
3:08 AM 21.2 °F - 19.4 °F 93% 29.89 in 1.6 mi Calm Calm - N/A Fog Patches of Fog
3:30 AM 21.2 °F 14.9 °F 19.4 °F 93% 29.89 in 1.6 mi North 4.6 mph - N/A Fog Patches of Fog
3:50 AM 19.4 °F 12.8 °F 17.6 °F 93% 29.89 in 0.9 mi ENE 4.6 mph - N/A Fog Patches of Fog
4:00 AM 19.4 °F 14.3 °F 17.6 °F 93% 29.86 in 0.5 mi NE 3.5 mph - N/A Fog Light Freezing Fog
4:30 AM 17.6 °F - 15.8 °F 93% 29.89 in 0.5 mi Variable 1.2 mph - N/A Fog Light Freezing Fog
4:40 AM 21.2 °F 16.4 °F 19.4 °F 93% 29.89 in 0.6 mi West 3.5 mph - N/A Fog Light Freezing Fog
4:47 AM 21.2 °F 16.4 °F 19.4 °F 93% 29.86 in 1.9 mi WNW 3.5 mph - N/A   Scattered Clouds
5:00 AM 23.0 °F 15.8 °F 21.2 °F 93% 29.89 in 3.1 mi ESE 5.8 mph - N/A   Scattered Clouds
5:16 AM 21.2 °F 16.4 °F 19.4 °F 93% 29.89 in 1.9 mi South 3.5 mph - N/A   Mostly Cloudy
5:30 AM 21.2 °F - 17.6 °F 86% 29.86 in 1.2 mi Variable 2.3 mph - N/A   Mostly Cloudy
6:00 AM 21.2 °F - 19.4 °F 93% 29.86 in 1.9 mi Calm Calm - N/A   Overcast
6:30 AM 23.0 °F - 21.2 °F 93% 29.86 in 2.8 mi Variable 1.2 mph - N/A   Overcast
6:48 AM 23.0 °F - 21.2 °F 93% 29.86 in 3.1 mi Variable 1.2 mph - N/A   Overcast
7:00 AM 24 °F - 20 °F 80% 29.93 in 3 mi ENE 2.2 mph - -   Mist
7:00 AM 23.0 °F - 21.2 °F 93% 29.86 in 3.1 mi Variable 1.2 mph - N/A   Overcast
7:30 AM 23.0 °F - 21.2 °F 93% 29.86 in 2.5 mi Variable 1.2 mph - N/A   Overcast
8:00 AM 23.0 °F - 21.2 °F 93% 29.86 in 2.5 mi Variable 1.2 mph - N/A   Overcast
8:30 AM 24.8 °F - 21.2 °F 86% 29.86 in 2.8 mi NE 1.2 mph - N/A   Overcast
9:00 AM 24.8 °F 20.5 °F 21.2 °F 86% 29.86 in - East 3.5 mph - N/A   Overcast
9:30 AM 24.8 °F - 23.0 °F 93% 29.86 in 1.5 mi Variable 2.3 mph - N/A   Overcast
10:00 AM 26.6 °F 22.6 °F 23.0 °F 86% 29.83 in 1.6 mi ENE 3.5 mph - N/A   Overcast
10:30 AM 26.6 °F 19.1 °F 23.0 °F 86% 29.83 in - ENE 6.9 mph - N/A   Overcast
11:00 AM 26.6 °F 19.1 °F 23.0 °F 86% 29.83 in 3.1 mi East 6.9 mph - N/A   Overcast
11:30 AM 28.4 °F 19.7 °F 23.0 °F 80% 29.80 in 3.1 mi East 9.2 mph - N/A   Overcast
12:00 PM 28.4 °F 19.1 °F 24.8 °F 86% 29.80 in 3.7 mi East 10.4 mph - N/A   Overcast
12:30 PM 28.4 °F 19.1 °F 23.0 °F 80% 29.77 in 3.7 mi ENE 10.4 mph - N/A   Overcast
1:00 PM 29 °F - 24 °F 74% 29.83 in 3 mi ENE 8.9 mph - -   Mist
1:00 PM 28.4 °F 19.7 °F 24.8 °F 86% 29.77 in 3.1 mi ENE 9.2 mph - N/A   Overcast
1:30 PM 30.2 °F 22.6 °F 26.6 °F 86% 29.74 in 3.1 mi East 8.1 mph - N/A   Overcast
1:41 PM 30.2 °F 22.6 °F 26.6 °F 86% 29.74 in 3.1 mi East 8.1 mph - N/A   Overcast
2:00 PM 32.0 °F 23.6 °F 28.4 °F 87% 29.74 in 3.7 mi ESE 10.4 mph - N/A   Overcast
2:30 PM 30.2 °F 21.3 °F 26.6 °F 86% 29.74 in 3.7 mi East 10.4 mph - N/A   Overcast
3:00 PM 32.0 °F 23.0 °F 26.6 °F 80% 29.74 in 3.7 mi ESE 11.5 mph - N/A   Overcast
3:30 PM 32.0 °F 22.1 °F 28.4 °F 87% 29.74 in 4.3 mi ESE 13.8 mph - N/A   Overcast
4:00 PM 32.0 °F 21.2 °F 28.4 °F 87% 29.74 in 4.3 mi SE 16.1 mph - N/A   Overcast
4:06 PM 32.0 °F 21.6 °F 28.4 °F 87% 29.74 in 4.3 mi SE 15.0 mph - N/A   Overcast
4:30 PM 32.0 °F 22.5 °F 30.2 °F 93% 29.74 in 4.3 mi SE 12.7 mph - N/A   Overcast
5:00 PM 32.0 °F 23.6 °F 30.2 °F 93% 29.74 in 4.3 mi SE 10.4 mph - N/A   Overcast
5:30 PM 32.0 °F 23.0 °F 30.2 °F 93% 29.74 in 3.7 mi ESE 11.5 mph - N/A   Overcast
5:41 PM 32.0 °F 23.0 °F 30.2 °F 93% 29.74 in 3.7 mi ESE 11.5 mph - N/A   Overcast
6:00 PM 32.0 °F 23.6 °F 30.2 °F 93% 29.74 in 3.1 mi SE 10.4 mph - N/A   Overcast
6:30 PM 32.0 °F 24.8 °F 30.2 °F 93% 29.74 in 2.8 mi SE 8.1 mph - N/A   Overcast
7:00 PM 33 °F - 30 °F 85% 29.79 in 3 mi SE 8.9 mph - -   Mist
7:00 PM 32.0 °F 24.2 °F 30.2 °F 93% 29.74 in 2.8 mi SE 9.2 mph - N/A   Overcast
7:30 PM 33.8 °F 26.4 °F 30.2 °F 87% 29.74 in 2.5 mi SE 9.2 mph - N/A   Overcast
8:00 PM 33.8 °F 28.6 °F 30.2 °F 87% 29.74 in 2.5 mi ESE 5.8 mph - N/A   Overcast
8:30 PM 33.8 °F 29.6 °F 32.0 °F 93% 29.71 in 2.5 mi SE 4.6 mph - N/A   Overcast
9:00 PM 33.8 °F 28.6 °F 32.0 °F 93% 29.71 in 3.1 mi SE 5.8 mph - N/A   Overcast
9:30 PM 33.8 °F 28.6 °F 30.2 °F 87% 29.71 in 3.1 mi SSE 5.8 mph - N/A   Overcast
10:00 PM 33.8 °F 30.8 °F 30.2 °F 87% 29.71 in 2.8 mi South 3.5 mph - N/A   Overcast
10:30 PM 32.0 °F 26.4 °F 30.2 °F 93% 29.71 in 2.2 mi SSW 5.8 mph - N/A   Overcast
11:00 PM 32.0 °F 26.4 °F 30.2 °F 93% 29.71 in - SSW 5.8 mph - N/A   Overcast
11:30 PM 32.0 °F 28.7 °F 30.2 °F 93% 29.71 in - South 3.5 mph - N/A   Overcast